Presure
342 329 325 308 315 322 306 294 264 292 299 310 303 302 301 289 283 288 284 289 285 272 260 251 237 228 225 222 217 212 210 207 203 202 202 203 205 206 208 207 209 211 211 209
342 352 333 325 313 307 309 316 302 293 256 293 297 298 292 287 282 281 280 284 284 284 284 284 282 264 256 249 238 228 223 218 216 214 213 209 207 209 212 212 213 216 218 219
338 342 340 322 320 327 324 315 305 297 286 292 250 288 296 290 281 276 271 271 273 281 280 281 278 278 275 275 270 255 249 241 232 224 220 220 221 220 220 223 227 229 231 233
343 341 340 337 317 309 310 312 318 310 300 290 283 261 282 283 280 273 273 267 263 264 268 265 268 275 275 274 275 273 269 262 261 260 259 257 257 261 260 257 254 250 247 243
435 350 337 333 328 330 313 301 301 305 306 301 294 285 257 267 282 279 272 267 268 265 264 262 261 260 261 263 269 271 271 272 273 273 272 270 269 269 270 271 273 274 275 274
411 412 365 337 320 319 323 310 309 300 297 298 296 290 291 253 264 277 276 272 266 263 261 259 258 258 255 255 259 261 261 260 259 258 259 259 259 261 262 264 262 264 264 265
421 433 431 447 334 319 318 325 345 345 324 310 312 314 299 279 253 272 274 273 268 263 263 262 263 264 263 261 261 263 264 264 263 262 261 261 262 264 261 261 260 257 254 255
388 400 410 419 401 366 345 321 323 326 331 330 316 308 311 301 281 248 274 271 269 266 261 259 258 257 255 253 254 256 257 256 259 260 257 260 259 259 257 257 256 256 256 254
359 369 392 408 401 381 351 347 354 336 326 330 338 328 311 318 306 271 249 268 272 272 271 268 266 263 260 257 255 255 256 257 260 259 259 256 255 257 255 254 252 255 254 252
338 347 359 378 398 396 369 353 348 346 353 352 354 353 331 315 306 298 279 250 263 274 274 273 269 266 265 265 264 262 260 257 255 256 259 260 259 257 255 256 255 256 257 254
335 337 334 343 355 388 388 368 358 353 341 341 339 334 348 337 315 302 296 287 261 245 257 269 273 275 271 270 269 269 268 267 265 264 263 263 263 263 260 262 263 266 269 270
283 305 325 345 322 329 343 361 369 361 354 355 342 345 343 336 329 324 315 298 281 268 248 241 253 264 269 273 273 274 274 276 277 281 286 291 293 293 289 289 290 290 290 288
279 284 290 297 315 363 312 322 330 343 353 356 351 344 345 343 341 331 320 309 304 293 280 264 245 235 236 245 251 257 272 274 276 277 278 281 279 277 272 267 264 259 255 249
284 276 282 277 282 289 305 346 315 314 318 324 332 337 338 338 334 334 330 327 319 308 301 295 286 260 245 237 230 228 241 246 257 258 245 228 227 226 225 225 226 227 229 229
294 283 274 272 282 277 276 284 292 320 351 299 305 310 312 317 321 323 327 332 326 323 318 307 302 296 292 284 251 241 237 235 234 233 233 234 236 239 265 277 294 297 297 295
313 299 282 273 269 266 276 288 277 275 281 289 306 319 321 326 294 293 296 301 307 311 311 311 312 311 309 308 305 302 297 294 290 288 287 290 292 292 290 287 283 281 280 283
327 314 301 283 272 266 262 262 264 274 268 276 274 276 277 281 287 291 299 307 316 319 315 308 297 297 296 300 303 302 297 292 289 287 285 282 279 278 277 277 274 272 269 267
327 311 307 304 285 271 266 261 260 262 262 262 265 269 267 266 269 273 275 275 277 278 279 278 278 278 278 277 275 273 272 271 270 269 267 266 264 264 262 260 258 255 256 258
312 318 306 298 309 291 274 267 262 260 257 255 253 253 256 263 264 261 259 258 258 258 257 257 258 259 259 258 256 256 256 256 257 258 257 255 254 254 256 258 259 260 264 271
318 312 315 303 297 300 297 281 266 264 261 259 255 252 252 252 251 250 251 252 253 253 252 253 255 256 255 252 252 252 254 255 257 259 261 263 264 264 282 286 280 274 270 277
325 316 315 314 302 301 283 303 289 275 265 260 260 259 258 257 257 254 252 250 248 246 248 248 252 254 260 262 263 266 269 274 284 288 286 278 267 267 282 282 276 275 276 276
337 326 317 319 313 300 299 285 277 305 290 280 270 263 261 258 259 260 261 263 263 262 265 267 271 279 285 287 280 273 263 262 268 279 287 280 273 271 269 270 270 269 268 272
347 336 328 319 321 315 304 298 288 275 272 278 298 292 286 282 278 277 279 280 284 287 285 273 260 258 267 277 285 283 272 275 278 276 268 265 264 266 267 266 266 268 273 277
356 348 334 327 322 319 316 302 305 293 283 274 272 266 264 267 268 268 260 256 258 261 264 268 273 270 281 278 274 280 282 267 264 266 265 265 266 266 267 272 277 290 306 310
364 348 340 338 330 325 318 310 304 309 298 288 281 275 275 269 268 266 265 265 267 268 271 269 275 275 271 268 268 268 268 267 266 265 264 264 271 279 287 296 302 312 312 311
362 353 347 346 339 331 323 315 306 309 300 306 295 292 286 279 275 275 276 276 274 276 280 270 273 276 271 267 267 267 268 267 267 274 280 287 288 291 301 304 308 313 314 313
377 370 360 347 344 337 324 317 313 305 301 309 304 302 291 291 289 281 280 282 280 278 276 278 277 272 268 270 274 274 276 282 285 288 290 290 298 303 300 306 315 317 323 327
Wind_Speed
54 53 56 55 55 57 63 66 71 71 71 68 68 69 71 76 78 79 83 87 94 102 109 114 122 124 124 123 124 123 122 121 119 118 118 118 118 117 116 116 117 117 116 115
47 52 56 56 59 60 60 63 68 70 69 68 67 67 68 69 72 74 77 78 83 87 91 95 100 111 115 119 123 126 126 124 123 122 121 119 118 119 121 121 120 121 121 121
48 48 52 53 51 53 56 62 66 68 71 68 64 65 65 65 68 72 75 76 78 78 80 83 88 91 94 99 107 113 116 119 121 121 121 122 124 125 125 126 126 126 125 124
53 50 49 56 60 59 59 60 60 62 65 68 68 66 63 64 67 70 71 74 76 77 76 80 83 82 85 90 93 97 102 107 110 111 113 114 115 115 117 118 119 119 119 119
5 62 48 53 54 60 60 59 62 62 62 64 67 67 67 65 65 66 68 70 70 72 74 77 79 80 81 84 84 84 86 87 88 90 92 94 96 98 99 100 100 100 99 99
4 11 56 55 52 52 58 63 69 68 66 66 66 66 64 68 65 64 65 67 69 71 73 75 76 77 79 80 80 80 81 83 85 86 87 89 90 90 90 91 91 91 91 91
5 2 4 18 62 60 58 62 58 54 66 69 68 68 67 66 66 63 63 64 66 68 70 71 72 73 74 75 77 78 78 80 81 82 83 85 85 85 84 84 83 83 85 86
17 10 4 10 28 52 67 60 57 51 54 58 65 67 66 64 64 64 63 64 66 67 69 70 71 72 73 73 74 74 75 76 76 77 78 78 79 78 79 81 82 83 85 86
27 20 8 6 16 35 47 49 50 55 50 49 53 60 63 61 61 65 66 64 65 67 67 66 66 67 68 70 71 72 73 74 74 74 75 77 78 79 78 80 82 83 84 84
32 27 20 10 8 18 33 43 45 47 44 41 39 45 54 60 61 61 63 65 63 62 62 63 65 66 68 69 70 72 72 72 73 73 74 74 75 76 77 78 79 80 81 83
37 31 27 21 16 5 14 25 33 37 39 40 40 43 43 49 59 61 61 61 62 64 62 61 62 62 64 65 66 67 67 68 70 71 72 72 73 73 74 75 76 77 79 80
35 31 31 24 20 16 9 4 13 20 27 35 38 38 41 45 49 53 58 59 59 61 64 65 63 62 60 60 59 60 62 63 64 65 65 66 67 66 67 67 67 68 68 70
33 30 25 23 26 19 13 9 5 4 11 19 26 29 30 34 40 45 49 54 57 61 63 63 65 64 62 59 58 58 58 59 60 60 61 61 62 63 64 65 67 68 70 72
29 27 25 22 18 16 18 15 8 4 1 4 9 14 19 24 29 36 42 46 51 54 56 57 59 61 62 62 63 63 61 61 61 62 64 67 69 71 73 74 76 77 78 79
23 24 22 19 18 14 11 9 9 9 6 2 5 8 11 13 17 21 25 30 36 40 44 47 50 52 53 56 63 65 66 66 67 69 70 72 75 76 67 63 57 56 56 57
20 18 18 17 15 12 11 7 5 3 1 3 5 6 7 9 14 16 19 21 23 25 28 30 32 33 35 36 38 40 41 43 46 47 48 47 46 46 48 50 52 54 56 56
21 19 17 16 14 12 10 8 7 6 5 5 6 7 9 10 11 12 13 14 15 17 20 24 28 29 30 30 30 30 31 34 36 38 40 42 44 46 47 49 52 54 56 58
24 23 20 19 17 16 15 13 12 10 9 9 9 10 11 13 13 14 15 16 17 18 19 21 23 25 26 28 30 32 35 37 40 42 44 46 47 50 53 55 58 60 62 64
31 27 24 22 23 22 21 19 18 17 17 16 16 16 15 15 16 18 19 21 22 23 25 29 30 30 31 33 37 40 42 44 46 47 49 51 54 56 58 58 60 62 64 65
33 31 28 26 25 25 27 26 25 25 24 23 24 23 23 23 23 24 26 26 27 27 32 34 35 35 35 38 42 46 47 48 49 50 53 54 56 57 58 57 58 60 61 63
35 33 31 30 29 29 28 32 32 32 31 29 30 30 29 29 29 31 32 32 31 37 39 40 41 41 42 43 46 50 50 50 51 51 51 52 54 55 56 56 58 60 61 63
36 35 34 33 32 32 32 31 31 36 38 38 36 36 37 35 37 37 37 39 38 42 44 44 45 45 45 43 44 46 46 47 50 52 51 51 53 55 57 58 59 61 63 65
36 36 36 35 36 35 35 35 34 35 35 37 38 39 42 43 43 43 42 42 41 39 41 41 41 44 45 46 48 47 49 49 50 51 52 54 56 57 59 61 63 65 67 69
37 36 36 36 36 37 38 38 39 38 38 39 38 39 39 40 39 40 41 42 43 43 45 45 45 47 46 48 48 48 48 50 52 53 55 57 59 61 63 66 68 71 68 67
38 36 36 36 36 37 37 39 40 41 41 42 42 42 42 43 44 45 45 45 46 47 47 48 47 48 48 49 50 51 52 52 55 57 59 61 64 67 68 68 68 67 67 68
36 36 35 35 35 36 36 37 39 41 41 44 44 46 46 47 47 47 48 49 49 49 49 50 50 50 50 51 53 55 56 56 58 61 64 64 66 67 67 68 69 69 69 71
35 35 34 35 34 34 35 37 38 39 40 44 45 46 46 48 49 49 49 50 49 50 51 52 53 53 55 56 58 59 60 62 62 63 63 64 67 68 69 70 72 73 75 75
Wind_Direction
212 212 212 220 219 216 221 223 228 230 233 232 231 233 233 233 232 231 231 233 234 235 236 238 239 240 241 243 244 245 247 248 249 251 252 253 254 255 257 258 259 260 260 260
213 212 216 213 217 223 220 219 223 229 231 231 232 230 231 231 232 232 231 231 233 235 236 238 239 240 241 242 243 244 246 248 249 251 252 254 256 258 259 259 260 261 262 263
223 219 209 213 217 215 218 224 223 225 230 231 225 231 231 230 230 230 229 230 232 233 235 237 238 240 241 242 243 243 244 246 247 250 252 253 255 256 257 259 260 261 262 263
224 224 216 209 212 219 221 224 224 225 228 231 230 225 229 229 229 229 230 229 230 232 233 235 239 239 240 242 243 244 246 247 249 250 252 253 254 255 256 256 257 258 259 260
211 223 221 219 217 216 217 222 227 227 227 229 231 230 225 227 230 230 230 231 231 232 234 235 237 239 240 242 243 244 245 247 248 250 251 252 253 255 256 257 258 259 260 260
222 225 222 217 223 225 221 220 223 228 230 228 228 230 230 226 227 229 230 230 232 231 232 234 236 237 238 241 243 243 244 245 246 248 249 251 252 253 254 255 257 258 259 260
39 52 184 195 219 227 226 230 231 227 226 229 230 232 229 227 226 229 230 231 232 233 234 235 236 238 239 240 242 244 245 246 247 248 250 252 254 255 256 258 259 260 261 261
39 50 70 176 197 214 229 228 226 223 220 222 226 230 231 229 228 227 229 231 232 232 233 235 236 237 239 242 244 246 247 249 250 251 252 254 255 256 257 257 258 259 260 260
37 37 51 138 188 202 214 225 228 233 227 228 232 224 228 227 228 227 229 230 231 233 235 236 239 241 242 243 244 246 248 249 250 251 252 253 254 256 257 258 259 260 261 263
32 37 42 54 164 195 210 221 227 233 238 234 230 224 221 226 229 229 229 231 232 234 236 237 238 239 240 241 243 245 247 250 252 253 255 256 257 257 258 259 260 260 261 262
34 35 36 43 54 124 194 212 223 227 228 230 226 223 222 219 224 230 230 231 233 233 236 238 240 240 242 244 245 246 248 250 251 253 254 255 257 258 259 260 261 261 262 262
19 30 37 41 37 41 56 154 212 219 221 225 229 229 226 223 222 223 226 232 234 234 235 237 238 240 241 244 246 248 250 251 253 254 255 256 258 259 259 260 261 262 263 263
10 13 20 32 39 49 36 39 52 176 206 216 226 232 231 227 226 226 224 226 228 231 235 238 239 242 243 245 248 250 251 252 253 254 255 256 257 258 259 260 262 263 264 264
360 4 8 11 20 34 41 53 44 48 110 193 208 216 221 225 225 226 228 230 230 232 235 238 241 244 244 246 248 250 252 254 255 256 257 258 259 260 261 262 262 263 264 264
350 350 354 359 4 3 9 24 45 60 83 193 198 199 203 209 216 222 226 229 232 235 237 238 239 241 243 246 249 251 253 256 257 259 260 261 262 262 262 262 263 264 265 266
332 331 334 336 340 341 351 346 341 333 74 119 130 150 178 195 218 219 219 221 222 225 228 232 236 238 241 242 244 246 247 249 251 252 254 256 258 259 261 262 263 264 265 267
318 312 307 308 310 309 310 310 312 301 279 252 229 210 202 201 199 199 199 199 202 210 218 224 231 234 236 237 240 242 245 247 249 251 253 256 257 259 261 262 263 265 266 267
314 312 301 282 278 283 280 277 277 271 264 255 255 247 245 237 228 223 221 222 223 225 227 231 234 236 239 242 246 248 249 251 253 255 256 258 260 261 262 264 265 267 268 269
316 305 299 291 268 262 262 262 259 256 254 253 251 248 245 244 241 241 241 242 243 244 247 247 249 249 250 253 254 255 256 257 258 260 261 262 263 264 266 268 270 271 272 274
308 302 291 286 276 265 254 251 255 254 250 248 247 248 248 247 245 245 246 247 249 250 251 253 254 254 253 254 257 259 260 261 264 265 267 268 268 271 274 275 274 274 274 276
301 296 289 279 275 266 264 251 248 248 253 252 252 252 251 250 250 248 248 250 252 254 255 258 260 261 262 263 264 265 267 269 270 270 270 270 272 273 275 275 276 277 278 279
294 288 284 277 271 266 262 257 257 250 248 249 249 252 254 255 256 257 258 260 258 259 262 264 266 268 269 268 267 268 267 268 270 271 272 273 273 274 275 277 278 279 279 281
289 284 280 277 271 265 261 258 253 254 255 254 252 252 254 255 256 258 260 262 263 263 264 264 265 266 270 272 272 271 273 273 272 272 274 275 276 277 279 279 280 282 283 284
288 281 276 273 270 266 262 259 254 253 252 254 254 254 255 257 257 257 260 261 263 264 266 268 270 271 273 272 273 274 272 274 275 275 276 277 279 280 281 282 283 284 286 286
288 281 275 270 267 264 262 260 258 254 252 253 254 255 256 257 258 261 263 264 266 267 267 269 270 271 272 274 275 275 275 275 277 278 279 280 282 282 283 284 286 288 289 289
285 280 275 270 266 264 262 261 259 258 257 254 254 255 256 258 260 261 263 265 266 267 268 270 271 272 273 275 276 277 277 278 278 279 280 281 282 284 287 288 290 291 292 292
284 278 274 272 268 264 264 262 261 259 259 258 257 256 257 258 260 261 263 265 266 268 269 270 271 273 274 276 276 277 278 279 279 280 282 283 287 288 288 290 292 292 293 292